Estación de Sagrada Familia
Ultimos registro cada 15 minutos 91
| N° | Estación | Fecha / Hora | Temperatura | Humedad | Lluvia | Velocidad | Dirección | Radiación | Presion |
| 91 | Sagrada Familia | 07-05-2026 22:30 | 10,9 | 74 | 0 | 0,9 | 297 | 0 | 1025,6 |
| 90 | Sagrada Familia | 07-05-2026 22:15 | 11,1 | 75 | 0 | 0 | 294 | 0 | 1025,5 |
| 89 | Sagrada Familia | 07-05-2026 22:00 | 11,3 | 75 | 0 | 0 | 254 | 0 | 1025,7 |
| 88 | Sagrada Familia | 07-05-2026 21:45 | 11,5 | 75 | 0 | 0 | 296 | 0 | 1025,5 |
| 87 | Sagrada Familia | 07-05-2026 21:30 | 11,6 | 74 | 0 | 0 | 247 | 0 | 1025,6 |
| 86 | Sagrada Familia | 07-05-2026 21:15 | 11,6 | 74 | 0 | 0,4 | 225 | 0 | 1025,8 |
| 85 | Sagrada Familia | 07-05-2026 21:00 | 11,5 | 75 | 0 | 0,4 | 334 | 0 | 1025,7 |
| 84 | Sagrada Familia | 07-05-2026 20:45 | 11,8 | 75 | 0 | 0 | 343 | 0 | 1026,1 |
| 83 | Sagrada Familia | 07-05-2026 20:30 | 12,1 | 72 | 0 | 0 | 40 | 0 | 1026,2 |
| 82 | Sagrada Familia | 07-05-2026 20:15 | 11,7 | 74 | 0 | 0,9 | 135 | 0 | 1026,3 |
| 81 | Sagrada Familia | 07-05-2026 20:00 | 11,9 | 78 | 0 | 0 | 48 | 0 | 1026,3 |
| 80 | Sagrada Familia | 07-05-2026 19:45 | 11,8 | 79 | 0 | 0 | 16 | 0 | 1026 |
| 79 | Sagrada Familia | 07-05-2026 19:30 | 12 | 76 | 0 | 0 | 16 | 0 | 1025,6 |
| 78 | Sagrada Familia | 07-05-2026 19:15 | 12,6 | 76 | 0 | 0 | 16 | 0 | 1025,7 |
| 77 | Sagrada Familia | 07-05-2026 19:00 | 12,7 | 71 | 0 | 0 | 16 | 0 | 1025,6 |
| 76 | Sagrada Familia | 07-05-2026 18:45 | 12,9 | 71 | 0 | 0 | 16 | 0 | 1025,3 |
| 75 | Sagrada Familia | 07-05-2026 18:30 | 13,2 | 68 | 0 | 0 | 85 | 0 | 1025,3 |
| 74 | Sagrada Familia | 07-05-2026 18:15 | 13,4 | 67 | 0 | 0 | 130 | 0 | 1025,4 |
| 73 | Sagrada Familia | 07-05-2026 18:00 | 13,7 | 67 | 0 | 0 | 143 | 0 | 1025,8 |
| 72 | Sagrada Familia | 07-05-2026 17:45 | 13,9 | 65 | 0 | 0 | 173 | 0 | 1025,5 |
| 71 | Sagrada Familia | 07-05-2026 17:30 | 14 | 65 | 0 | 0 | 163 | 12 | 1025,6 |
| 70 | Sagrada Familia | 07-05-2026 17:15 | 14,1 | 65 | 0 | 0,4 | 181 | 21 | 1025,5 |
| 69 | Sagrada Familia | 07-05-2026 17:00 | 14,3 | 63 | 0 | 0,4 | 194 | 26 | 1025,6 |
| 68 | Sagrada Familia | 07-05-2026 16:45 | 14,5 | 63 | 0 | 0,4 | 206 | 44 | 1025,5 |
| 67 | Sagrada Familia | 07-05-2026 16:30 | 14,7 | 62 | 0 | 0 | 204 | 63 | 1025,6 |
| 66 | Sagrada Familia | 07-05-2026 16:15 | 15,1 | 61 | 0 | 0,9 | 151 | 95 | 1025,3 |
| 65 | Sagrada Familia | 07-05-2026 16:00 | 15,3 | 60 | 0 | 1,3 | 127 | 123 | 1025,4 |
| 64 | Sagrada Familia | 07-05-2026 15:45 | 15,7 | 58 | 0 | 1,3 | 233 | 141 | 1025,4 |
| 63 | Sagrada Familia | 07-05-2026 15:30 | 16,6 | 55 | 0 | 0,4 | 163 | 130 | 1025,1 |
| 62 | Sagrada Familia | 07-05-2026 15:15 | 17,5 | 56 | 0 | 0,4 | 141 | 415 | 1024,7 |
| 61 | Sagrada Familia | 07-05-2026 15:00 | 17,6 | 57 | 0 | 0,4 | 323 | 522 | 1024,9 |
| 60 | Sagrada Familia | 07-05-2026 14:45 | 17,3 | 57 | 0 | 0,9 | 206 | 417 | 1024,9 |
| 59 | Sagrada Familia | 07-05-2026 14:30 | 17,4 | 58 | 0 | 0,4 | 222 | 69 | 1025 |
| 58 | Sagrada Familia | 07-05-2026 14:15 | 17,2 | 61 | 0 | 0 | 234 | 536 | 1025,2 |
| 57 | Sagrada Familia | 07-05-2026 14:00 | 17 | 61 | 0 | 0,9 | 309 | 589 | 1025,2 |
| 56 | Sagrada Familia | 07-05-2026 13:45 | 16,4 | 60 | 0 | 0 | 246 | 585 | 1025,3 |
| 55 | Sagrada Familia | 07-05-2026 13:30 | 16,6 | 60 | 0 | 0,9 | 200 | 621 | 1025,6 |
| 54 | Sagrada Familia | 07-05-2026 13:15 | 16,3 | 66 | 0 | 0,9 | 352 | 643 | 1025,4 |
| 53 | Sagrada Familia | 07-05-2026 13:00 | 16,1 | 66 | 0 | 0 | 192 | 628 | 1025,8 |
| 52 | Sagrada Familia | 07-05-2026 12:45 | 15,7 | 67 | 0 | 0,4 | 2 | 592 | 1026,2 |
| 51 | Sagrada Familia | 07-05-2026 12:30 | 15,3 | 72 | 0 | 0 | 85 | 601 | 1026,4 |
| 50 | Sagrada Familia | 07-05-2026 12:15 | 15,3 | 67 | 0 | 0 | 97 | 598 | 1026,6 |
| 49 | Sagrada Familia | 07-05-2026 12:00 | 15,1 | 68 | 0 | 0,4 | 93 | 585 | 1026,6 |
| 48 | Sagrada Familia | 07-05-2026 11:45 | 14,6 | 68 | 0 | 0,9 | 94 | 573 | 1027 |
| 47 | Sagrada Familia | 07-05-2026 11:30 | 14,3 | 69 | 0 | 0 | 52 | 561 | 1027 |
| 46 | Sagrada Familia | 07-05-2026 11:15 | 13,7 | 69 | 0 | 0 | 343 | 540 | 1027,1 |
| 45 | Sagrada Familia | 07-05-2026 11:00 | 13,4 | 73 | 0 | 0 | 196 | 526 | 1027,2 |
| 44 | Sagrada Familia | 07-05-2026 10:45 | 13,1 | 72 | 0 | 0 | 221 | 503 | 1027,3 |
| 43 | Sagrada Familia | 07-05-2026 10:30 | 12,6 | 77 | 0 | 0 | 117 | 466 | 1027,1 |
| 42 | Sagrada Familia | 07-05-2026 10:15 | 12,8 | 77 | 0 | 0 | 21 | 476 | 1027,4 |
| 41 | Sagrada Familia | 07-05-2026 10:00 | 11,7 | 82 | 0 | 0 | 21 | 406 | 1027,4 |
| 40 | Sagrada Familia | 07-05-2026 09:45 | 11 | 82 | 0 | 0,4 | 312 | 369 | 1027,3 |
| 39 | Sagrada Familia | 07-05-2026 09:30 | 10,7 | 85 | 0 | 0 | 89 | 323 | 1027,4 |
| 38 | Sagrada Familia | 07-05-2026 09:15 | 9,9 | 88 | 0 | 0 | 81 | 281 | 1027,2 |
| 37 | Sagrada Familia | 07-05-2026 09:00 | 9,2 | 90 | 0 | 0 | 173 | 51 | 1027 |
| 36 | Sagrada Familia | 07-05-2026 08:45 | 8,4 | 92 | 0 | 0 | 196 | 46 | 1026,7 |
| 35 | Sagrada Familia | 07-05-2026 08:30 | 7,7 | 93 | 0 | 0 | 89 | 40 | 1026,5 |
| 34 | Sagrada Familia | 07-05-2026 08:15 | 7,3 | 94 | 0 | 0 | 339 | 32 | 1026,4 |
| 33 | Sagrada Familia | 07-05-2026 08:00 | 6,7 | 91 | 0 | 0 | 8 | 25 | 1026,1 |
| 32 | Sagrada Familia | 07-05-2026 07:45 | 6,8 | 90 | 0 | 0 | 8 | 14 | 1026,1 |
| 31 | Sagrada Familia | 07-05-2026 07:30 | 7,3 | 90 | 0 | 0 | 8 | 5 | 1026 |
| 30 | Sagrada Familia | 07-05-2026 07:15 | 7,7 | 89 | 0 | 0 | 8 | 0 | 1025,8 |
| 29 | Sagrada Familia | 07-05-2026 07:00 | 8,1 | 90 | 0 | 0 | 8 | 0 | 1025,6 |
| 28 | Sagrada Familia | 07-05-2026 06:45 | 8,5 | 89 | 0 | 0 | 52 | 0 | 1025,4 |
| 27 | Sagrada Familia | 07-05-2026 06:30 | 8,9 | 88 | 0 | 0 | 11 | 0 | 1025,5 |
| 26 | Sagrada Familia | 07-05-2026 06:15 | 9,3 | 89 | 0 | 0 | 11 | 0 | 1025,5 |
| 25 | Sagrada Familia | 07-05-2026 06:00 | 9,8 | 88 | 0 | 0 | 183 | 0 | 1025,3 |
| 24 | Sagrada Familia | 07-05-2026 05:45 | 10,1 | 87 | 0 | 0 | 183 | 0 | 1025,4 |
| 23 | Sagrada Familia | 07-05-2026 05:30 | 10,2 | 87 | 0 | 0 | 235 | 0 | 1025 |
| 22 | Sagrada Familia | 07-05-2026 05:15 | 10,3 | 87 | 0 | 0 | 212 | 0 | 1024,8 |
| 21 | Sagrada Familia | 07-05-2026 05:00 | 10,4 | 86 | 0 | 0,4 | 288 | 0 | 1024,6 |
| 20 | Sagrada Familia | 07-05-2026 04:45 | 10,6 | 87 | 0 | 0 | 255 | 0 | 1024,3 |
| 19 | Sagrada Familia | 07-05-2026 04:30 | 10,7 | 87 | 0 | 0 | 247 | 0 | 1024 |
| 18 | Sagrada Familia | 07-05-2026 04:15 | 10,7 | 87 | 0 | 0 | 229 | 0 | 1024,2 |
| 17 | Sagrada Familia | 07-05-2026 04:00 | 10,8 | 87 | 0 | 0,4 | 200 | 0 | 1024 |
| 16 | Sagrada Familia | 07-05-2026 03:45 | 10,8 | 87 | 0 | 0 | 216 | 0 | 1024 |
| 15 | Sagrada Familia | 07-05-2026 03:30 | 10,9 | 87 | 0 | 0 | 312 | 0 | 1024 |
| 14 | Sagrada Familia | 07-05-2026 03:15 | 10,9 | 86 | 0 | 0 | 221 | 0 | 1024,2 |
| 13 | Sagrada Familia | 07-05-2026 03:00 | 11 | 86 | 0 | 0 | 9 | 0 | 1024 |
| 12 | Sagrada Familia | 07-05-2026 02:45 | 11,1 | 86 | 0 | 0 | 22 | 0 | 1023,9 |
| 11 | Sagrada Familia | 07-05-2026 02:30 | 11 | 87 | 0 | 0 | 244 | 0 | 1023,9 |
| 10 | Sagrada Familia | 07-05-2026 02:15 | 10,9 | 86 | 0 | 0 | 232 | 0 | 1023,8 |
| 9 | Sagrada Familia | 07-05-2026 02:00 | 10,9 | 87 | 0 | 0 | 237 | 0 | 1023,6 |
| 8 | Sagrada Familia | 07-05-2026 01:45 | 10,7 | 87 | 0 | 0 | 251 | 0 | 1023,6 |
| 7 | Sagrada Familia | 07-05-2026 01:30 | 10,7 | 88 | 0 | 0 | 260 | 0 | 1023,3 |
| 6 | Sagrada Familia | 07-05-2026 01:15 | 10,8 | 87 | 0 | 0 | 219 | 0 | 1023,2 |
| 5 | Sagrada Familia | 07-05-2026 01:00 | 10,8 | 88 | 0 | 0 | 237 | 0 | 1023 |
| 4 | Sagrada Familia | 07-05-2026 00:45 | 10,9 | 88 | 0 | 0 | 192 | 0 | 1023,2 |
| 3 | Sagrada Familia | 07-05-2026 00:30 | 11,3 | 87 | 0 | 0 | 273 | 0 | 1023,3 |
| 2 | Sagrada Familia | 07-05-2026 00:15 | 11,6 | 86 | 0 | 0 | 273 | 0 | 1023,1 |
| 1 | Sagrada Familia | 07-05-2026 00:00 | 11,8 | 86 | 0 | 0 | 273 | 0 | 1023 |